User: anonymous   Login
Location: Unspecified
(0.0000°N, 0.0000°E)
Time: 00:34:32
(UTC+02:00)
Language:

Ariane H10 - Orbit

View from above orbital plane
View from above orbital plane
View from above satellite
View from above satellite

Ground track
Ground track

The orbit data is extracted from the following two-line orbital elements,

1 21727U 91067B   16120.20687126 -.00000069  00000-0 -24977-3 0  9993
2 21727   4.0451 137.5000 7176659 178.2995 187.4825  2.31848161168333
Epoch (UTC): 29 April 2016 04:57:53
Eccentricity: 0.7176659
inclination: 4.0451°
perigee height: 430 km
apogee height: 35041 km
right ascension of ascending node: 137.5000°
argument of perigee: 178.2995°
revolutions per day: 2.31848161
mean anomaly at epoch: 187.4825°
orbit number at epoch: 16833

The dashed part of the orbit path shows where the satellite is in the earth's shadow,  

DLR